User: anonymous   Login
Location: Unspecified
(0.0000°N, 0.0000°E)
Time: 17:28:20
(UTC+00:00)
Language:

CUBESAT XI-V - Orbit

View from above orbital plane
View from above orbital plane
View from above satellite
View from above satellite

Ground track
Ground track

The orbit data is extracted from the following two-line orbital elements,

1 28895U 05043F   18114.87629942  .01068788  00000-0  16646+0 0  9996
2 28895  97.9011 268.5239 0017929 230.7827 129.1788 14.69810836666070
Epoch (UTC): 24 April 2018 21:01:52
Eccentricity: 0.0017929
inclination: 97.9011°
perigee height: 649 km
apogee height: 674 km
right ascension of ascending node: 268.5239°
argument of perigee: 230.7827°
revolutions per day: 14.69810836
mean anomaly at epoch: 129.1788°
orbit number at epoch: 66607

The dashed part of the orbit path shows where the satellite is in the earth's shadow,  

DLR